Hourly Data Report for September 08, 2020

OTTAWA INTL A
ONTARIO
Current Station Operator: NAVCAN

45°19'00.000" N
75°40'00.000" W
114.90 m
6106001
71628
YOW

Download Data

Hourly Data (September 2020)
Hourly Data Report for September 8, 2020
TIME Temp Definition
°C
Dew Point Definition
°C
Rel Hum Definition
%
Wind Dir Definition
10's deg

Wind Spd Definition
km/h
Visibility Definition
km
Stn Press Definition
kPa
Hmdx Definition


Wind Chill Definition


Weather Definition


00:00 16.4 11.9 74 29 14 24.1 100.28     LegendNANA
01:00 13.7 11.4 86 28 7 24.1 100.27     Mostly Cloudy
02:00 13.5 11.2 86 28 14 24.1 100.31     LegendNANA
03:00 11.8 10.6 92 26 8 24.1 100.36     LegendNANA
04:00 10.4 9.4 93 28 8 24.1 100.42     Mainly Clear
05:00 10.7 10.1 96 30 5 24.1 100.55     LegendNANA
06:00 9.4 8.9 97 25 4 24.1 100.57     LegendNANA
07:00 11.6 11.1 97 30 7 24.1 100.69     Mainly Clear
08:00 14.0 10.7 81 32 10 24.1 100.76     LegendNANA
09:00 14.9 11.1 78 35 3 24.1 100.83     LegendNANA
10:00 16.5 10.7 68 6 9 24.1 100.77     Mostly Cloudy
11:00 17.8 10.8 63 4 3 24.1 100.82     LegendNANA
12:00 17.4 10.7 65 36 6 24.1 100.85     LegendNANA
13:00 17.3 9.7 61 33 11 24.1 100.88     Mostly Cloudy
14:00 17.4 11.2 67 33 3 24.1 100.82     LegendNANA
15:00 17.0 12.2 73 30 7 24.1 100.84     Rain
16:00 15.7 12.9 83 5 9 24.1 100.82     Rain
17:00 14.7 11.7 82 4 8 24.1 100.91     Rain
18:00 14.2 11.3 82 6 10 24.1 100.95     LegendNANA
19:00 13.5 10.6 82 5 10 24.1 100.96     Cloudy
20:00 13.2 10.4 83 7 9 24.1 101.03     LegendNANA
21:00 13.0 10.7 85 6 10 24.1 101.02     LegendNANA
22:00 12.9 10.5 85 6 17 24.1 100.99     Mostly Cloudy
23:00 12.7 11.1 89 4 13 24.1 101.00     LegendNANA

Notes on Data Quality.

Legend

  • E = Estimated
  • M = Missing
  • NA = Not Available*
  • [empty] = Indicates an unobserved value
Date modified: